Helicity
54 60 58 55 57 63 67 73 78 74 76 54 44 55 59 54 63 70 65 73 55 62 43 39 40 51 79 100 86 77 62 64 68 70 71 73 76 77 82 75 75 74 71
58 66 66 63 68 60 73 75 74 87 84 78 72 68 56 55 53 47 52 61 84 73 71 59 87 106 104 100 82 68 67 66 73 77 71 73 69 72 69 61 61 62 61
57 70 72 62 67 71 99 114 108 123 122 108 103 90 73 67 72 60 52 69 83 128 129 137 114 116 87 86 78 76 76 71 75 73 68 65 63 63 61 62 62 63 69
72 86 80 69 80 102 123 131 111 134 127 111 99 92 83 73 69 66 60 61 71 97 146 186 162 102 72 86 88 89 100 92 87 79 78 84 81 75 65 70 70 72 72
95 99 85 90 108 135 142 142 131 134 128 133 128 113 97 88 69 57 70 75 71 85 121 178 221 192 132 112 91 91 99 97 94 91 88 89 90 89 88 92 96 98 97
109 123 123 118 125 154 166 166 172 173 141 145 166 174 142 114 91 80 66 67 79 91 113 163 212 245 207 136 125 111 96 94 94 99 99 90 90 100 103 92 95 103 101
131 141 149 142 130 152 151 178 229 224 213 204 242 236 194 144 126 102 74 68 81 87 107 122 145 170 185 187 158 137 115 99 94 87 96 93 89 89 94 85 74 78 83
149 148 152 141 136 176 195 214 227 274 223 182 201 236 206 175 150 122 94 85 80 77 101 113 131 140 134 131 126 143 142 128 110 93 95 111 116 75 72 73 79 84 84
147 155 164 177 159 192 201 190 246 281 254 176 171 178 204 168 190 147 128 110 100 96 103 112 127 128 123 113 125 136 137 123 100 86 79 85 85 76 75 73 76 82 85
158 158 185 187 196 196 199 219 226 275 316 257 216 188 179 165 226 214 164 152 126 119 119 121 121 127 129 119 123 130 124 112 98 85 71 72 72 73 69 77 84 96 94
155 174 178 182 190 202 191 219 226 259 258 267 262 253 223 216 222 226 253 206 199 166 132 129 137 144 144 120 103 102 104 97 88 75 72 72 68 66 80 96 106 108 108
181 165 164 172 190 201 201 205 222 226 244 250 251 233 231 225 188 205 210 249 230 225 188 157 158 164 144 128 109 110 102 91 73 63 78 95 81 81 90 98 118 125 136
197 167 183 199 192 199 219 236 240 240 229 226 221 188 196 186 194 217 230 298 292 250 218 207 185 168 143 128 107 97 85 72 69 81 92 103 98 97 108 128 125 143 136
190 206 213 213 200 196 222 240 246 231 230 220 215 209 185 184 183 226 245 309 346 294 248 195 196 186 157 131 109 92 57 75 76 86 101 106 100 93 98 100 113 121 118
249 247 248 249 236 219 234 229 221 253 264 234 236 229 241 225 209 207 241 308 356 302 263 201 190 181 158 129 96 65 40 75 77 71 93 106 98 96 104 110 119 117 111
253 260 254 253 257 250 258 261 253 256 303 308 329 303 307 288 271 263 269 313 287 220 247 215 219 189 158 121 110 89 63 83 98 97 111 102 97 115 118 131 124 130 134
283 286 271 275 266 289 301 312 314 290 293 329 332 322 320 301 305 307 322 305 289 234 237 229 249 212 165 130 121 87 92 102 82 98 105 106 116 121 139 121 130 143 152
277 279 311 327 413 440 411 277 321 256 282 285 284 306 324 317 341 315 306 305 282 248 218 277 220 177 150 151 126 119 115 115 111 108 119 110 124 151 138 140 139 144 148
259 312 391 475 526 524 495 449 389 316 282 279 302 269 273 275 297 279 286 264 260 292 232 164 147 150 158 156 140 153 142 127 108 87 104 143 140 134 135 140 130 127 124
301 330 366 401 430 593 535 586 593 412 302 291 273 204 232 234 201 213 194 192 171 157 131 120 148 178 152 142 146 144 147 118 106 111 116 114 108 126 144 138 131 133 133
279 303 362 383 428 464 522 674 685 682 624 421 345 277 213 159 159 158 158 142 141 112 150 121 227 139 127 139 129 121 113 105 103 91 110 119 128 145 140 131 125 108 113
309 335 383 400 408 379 411 631 642 815 663 591 490 578 496 433 284 200 205 163 143 168 208 153 125 113 134 121 113 112 98 96 83 74 94 128 122 162 141 129 96 95 111
325 327 376 409 407 436 539 596 519 659 684 619 560 473 393 271 234 218 210 215 222 128 86 98 109 122 120 111 103 97 84 79 82 98 122 123 143 147 141 122 81 78 103
319 365 381 408 464 427 502 518 623 712 596 557 423 318 247 232 187 267 242 185 160 128 131 146 143 120 116 90 83 91 96 92 97 100 124 136 134 151 152 147 35 51 75
296 321 382 453 454 457 511 546 669 622 625 438 337 274 213 243 206 106 144 159 142 158 153 154 156 156 146 153 128 111 109 98 93 120 141 161 148 158 130 70 46 41 51
340 400 413 427 467 558 592 530 573 551 448 372 266 211 204 140 107 103 105 119 123 120 127 139 137 145 152 139 128 113 113 113 116 116 90 165 149 146 129 92 113 93 104
Wind_Speed
2 2 4 6 8 13 17 25 31 33 33 35 35 35 35 36 37 38 38 37 37 43 45 45 46 49 50 49 48 48 48 49 50 51 52 52 52 52 53 53 53 53 53
5 2 3 4 7 9 14 20 25 29 28 29 31 31 31 31 32 33 34 36 36 37 43 42 44 44 45 45 46 46 47 48 49 50 51 52 52 53 53 54 54 55 55
9 3 1 2 4 7 11 14 18 22 23 24 27 29 29 30 31 31 30 32 33 34 37 40 41 42 43 44 44 45 46 47 49 49 50 51 52 52 53 54 55 56 57
12 8 4 1 1 4 7 9 12 14 16 19 21 23 25 26 27 29 29 28 30 29 31 35 36 36 38 41 43 44 45 46 47 48 50 51 52 53 54 55 56 57 58
15 10 7 4 2 2 3 5 6 9 12 15 17 19 21 21 23 24 26 27 28 29 28 31 35 36 37 38 39 41 43 44 46 47 49 50 52 54 55 56 58 59 60
18 14 11 8 5 3 2 2 3 4 7 10 13 15 18 19 20 21 22 23 25 27 28 29 31 34 36 36 38 40 41 43 44 46 48 50 52 54 56 57 58 61 62
22 18 15 12 11 10 7 6 2 3 3 5 8 14 18 19 19 19 19 19 20 23 25 26 27 29 32 35 37 39 40 42 45 46 48 50 53 55 56 58 59 60 62
26 23 20 18 16 14 13 12 11 9 6 3 9 12 17 20 20 19 17 16 16 18 20 23 25 27 29 32 35 38 41 43 45 47 48 51 53 56 56 58 60 61 63
31 26 25 23 22 20 19 19 16 13 13 13 9 20 22 24 13 21 17 16 14 13 17 19 22 25 27 30 34 38 41 44 47 47 48 50 54 56 59 60 61 63 65
43 43 35 32 27 27 26 23 21 20 17 20 19 26 28 21 22 23 21 20 17 14 12 17 19 23 26 29 33 37 41 45 47 48 50 52 55 59 61 62 64 65 67
42 42 37 35 33 33 31 28 27 27 27 27 25 28 29 28 27 28 25 21 21 20 15 15 19 23 26 29 32 36 40 44 48 50 51 53 57 61 63 65 66 67 69
44 42 39 38 37 36 35 34 33 33 32 32 33 33 32 31 30 31 32 23 23 26 24 19 22 24 28 30 34 38 43 47 50 52 53 54 60 63 65 67 68 69 71
43 40 45 44 42 38 37 34 34 34 33 36 37 39 39 37 34 34 29 27 30 31 32 27 26 28 30 32 36 42 48 50 51 52 55 56 61 63 66 70 70 70 73
48 44 42 44 43 39 39 37 38 38 40 38 40 44 43 41 37 34 31 26 33 37 37 35 32 32 29 32 39 46 50 52 55 55 56 59 62 65 68 72 70 73 76
53 50 48 47 47 44 42 38 37 37 35 33 33 35 39 40 40 37 32 27 31 41 41 37 38 32 33 34 40 46 50 54 57 57 58 61 66 66 69 71 73 77 77
58 54 54 53 50 46 44 38 41 41 38 36 32 30 31 32 33 33 29 30 33 39 41 41 39 34 38 38 40 45 49 53 57 62 64 69 68 67 68 70 76 78 80
60 61 58 56 54 51 48 46 44 45 39 37 31 29 27 26 28 28 27 30 33 37 36 38 38 37 39 42 45 48 51 53 58 62 68 71 70 70 70 77 77 79 79
60 59 58 55 52 45 46 48 47 44 36 32 30 28 26 23 22 24 27 29 29 29 33 34 32 34 43 39 47 51 48 52 59 64 69 68 68 75 77 76 77 77 80
60 55 51 50 49 48 48 46 46 35 38 34 30 28 27 24 23 21 25 26 30 32 30 31 34 35 38 42 41 45 50 55 61 63 65 64 73 75 77 77 78 81 83
55 54 51 48 46 40 38 35 39 44 38 33 29 19 24 22 23 21 24 27 28 29 30 27 35 38 42 43 45 47 53 56 62 63 55 63 71 74 77 79 80 83 83
51 52 49 48 44 44 41 35 30 30 32 28 23 25 22 19 19 22 23 25 27 31 36 35 42 43 45 44 44 49 53 58 62 50 57 68 72 75 76 77 80 83 86
41 43 46 45 46 47 37 30 26 23 26 33 27 21 17 17 20 19 20 22 24 29 33 38 37 36 44 42 45 50 56 62 63 50 68 74 73 79 76 77 83 83 80
32 38 42 43 47 46 41 33 28 30 20 21 22 20 14 18 16 18 18 21 24 25 26 30 34 39 40 43 47 52 55 58 63 66 70 79 74 78 77 81 79 73 69
27 29 36 41 42 38 34 31 27 22 22 16 13 19 16 11 18 18 19 17 22 24 26 30 31 35 39 45 46 50 54 59 64 65 68 79 73 84 83 76 65 61 61
25 26 26 30 30 29 27 26 22 19 16 15 13 11 10 9 8 12 14 16 22 25 28 30 34 38 41 44 47 49 59 67 72 71 65 76 81 92 84 73 56 56 72
25 23 22 22 22 23 22 22 20 20 17 14 14 11 7 10 9 13 12 15 22 24 29 34 38 40 41 44 49 51 55 66 72 76 62 85 81 84 89 66 59 67 69
Wind_Direction
210 47 16 360 18 47 60 79 87 88 79 75 70 70 65 59 53 48 42 31 29 34 49 59 61 60 57 47 38 35 34 29 27 26 24 22 20 19 17 15 12 9 7
251 283 353 2 24 47 56 77 86 89 79 72 69 63 59 55 51 48 44 37 31 31 37 55 59 54 46 41 38 35 33 32 30 28 26 25 23 20 18 15 12 9 6
256 253 308 26 45 59 65 65 71 79 73 67 65 63 57 50 47 44 42 38 34 28 31 40 48 46 43 41 41 40 37 35 32 31 28 26 22 19 16 13 9 7 5
253 255 259 242 52 74 83 79 73 68 69 68 66 57 56 49 46 42 39 35 32 28 25 24 29 38 41 44 43 41 37 36 32 28 26 22 18 14 12 8 4 2 359
242 245 252 250 199 121 91 95 67 72 67 64 60 53 47 39 39 40 35 33 30 30 28 25 25 30 38 38 37 36 35 32 27 25 23 21 17 13 10 7 2 359 356
242 248 251 242 232 228 209 169 113 43 65 61 50 39 29 20 22 28 31 29 28 27 27 26 26 24 28 31 32 30 28 23 20 16 14 13 12 11 7 5 1 357 354
242 245 246 242 240 231 221 197 193 129 40 64 26 13 3 357 2 8 17 22 22 22 25 25 25 21 18 19 20 21 20 17 13 11 10 7 5 4 3 1 359 358 355
244 245 241 241 240 242 229 226 240 265 279 218 310 340 331 333 337 345 358 6 13 15 19 19 22 19 16 14 13 11 9 7 5 2 2 2 360 359 360 358 357 354 352
252 251 251 251 247 244 238 235 219 238 239 260 240 316 313 311 316 325 334 344 358 7 6 12 14 13 12 9 7 4 2 1 358 358 358 359 357 356 354 353 352 350 348
256 258 257 257 254 256 252 244 234 245 245 249 263 297 310 315 306 305 313 321 335 344 353 358 2 3 3 3 1 359 358 356 355 353 353 353 352 351 351 349 347 345 345
256 257 258 258 257 259 258 252 247 249 253 258 261 280 297 304 306 305 295 297 316 327 332 344 345 350 355 356 356 354 353 352 350 347 348 348 348 347 346 345 344 343 342
257 257 257 257 259 258 257 255 255 256 256 262 268 272 283 290 290 299 302 288 298 313 318 327 328 338 341 347 350 347 347 347 345 344 344 345 343 343 343 342 341 341 342
256 255 258 259 262 262 261 258 256 256 257 262 264 272 278 284 291 294 297 287 293 304 311 317 320 325 333 338 340 341 339 341 342 343 341 342 341 341 341 340 340 341 340
258 260 258 262 263 263 261 260 262 263 264 267 268 272 278 280 287 286 286 274 291 301 304 307 311 317 328 334 335 338 337 339 340 339 339 340 339 338 338 337 338 338 337
261 261 260 261 263 263 262 262 262 260 263 267 271 273 277 281 283 285 283 271 283 292 294 300 307 312 320 329 333 334 336 337 338 338 337 340 336 336 337 337 336 335 334
262 261 261 262 262 262 262 260 265 268 267 270 271 271 277 282 286 287 284 285 290 296 297 301 306 309 314 321 330 331 333 336 337 332 333 334 335 336 336 336 334 333 332
261 262 262 261 262 262 264 263 268 269 266 269 271 270 276 283 286 290 291 288 292 298 299 308 308 310 313 317 325 329 330 333 331 332 332 332 335 335 336 333 333 333 332
263 263 263 263 263 262 265 268 267 265 264 263 270 274 277 282 289 296 297 298 304 309 305 302 309 312 313 326 325 324 329 331 329 331 331 334 336 333 333 335 334 334 332
265 262 260 258 261 260 259 264 268 265 269 265 269 274 279 283 291 296 298 303 309 314 316 306 311 319 321 326 328 330 329 329 330 331 334 335 334 333 334 335 335 333 331
262 260 259 257 255 259 259 263 266 263 266 264 270 269 274 284 288 297 303 306 308 315 316 319 318 319 320 322 327 329 328 331 331 333 337 336 335 335 335 334 333 333 332
264 261 257 255 252 249 254 255 254 246 253 262 272 282 280 283 291 300 305 307 312 317 312 316 316 318 316 324 329 330 330 331 332 337 337 335 336 336 336 336 334 332 330
265 260 258 254 254 250 246 247 237 240 240 254 262 270 281 289 296 310 318 318 322 317 315 316 320 322 318 328 330 331 330 331 332 340 335 333 336 334 336 337 334 333 332
265 260 258 255 254 259 242 238 241 251 250 248 251 259 272 284 299 307 318 328 329 332 329 326 322 324 327 329 331 330 332 332 331 333 334 331 336 336 337 336 335 335 336
261 259 258 256 256 251 236 235 236 246 249 245 229 261 279 297 296 305 315 329 328 333 333 333 335 332 332 330 330 333 334 333 333 335 337 331 338 335 337 338 339 339 339
270 262 257 253 248 240 224 220 229 237 244 236 240 261 280 288 305 314 323 324 324 330 338 339 337 336 335 336 337 337 333 333 333 335 340 336 337 334 337 339 343 343 338
275 267 257 246 229 230 213 215 221 236 226 232 247 247 247 287 297 309 321 325 316 326 327 329 333 337 341 341 341 341 339 335 335 335 342 337 338 341 337 341 341 338 339